| time (UTC) | temp C | wind direction | speed KPH | gust KPH | rain 1hr cm | rain 24hr cm | rain mn cm | humidity % | barometer mb |
| 20260509135226 | 13 | 29 | 4.8 | 6.4 | 0.00 | 0.00 | 0.00 | 62 | |
| 20260509134722 | 13 | 11 | 6.4 | 6.4 | 0.00 | 0.00 | 0.00 | 61 | |
| 20260509134220 | 13 | 8 | 6.4 | 9.7 | 0.00 | 0.00 | 0.00 | 59 | |
| 20260509133717 | 13 | 14 | 4.8 | 6.4 | 0.00 | 0.00 | 0.00 | 59 | |
| 20260509133213 | 13 | 37 | 3.2 | 6.4 | 0.00 | 0.00 | 0.00 | 59 | |
| 20260509132712 | 13 | 7 | 4.8 | 4.8 | 0.00 | 0.00 | 0.00 | 59 | |
| 20260509132210 | 13 | 90 | 1.6 | 3.2 | 0.00 | 0.00 | 0.00 | 60 | |
| 20260509131706 | 13 | 26 | 4.8 | 4.8 | 0.00 | 0.00 | 0.00 | 59 | |
| 20260509131203 | 13 | 30 | 3.2 | 4.8 | 0.00 | 0.00 | 0.00 | 58 | |
| 20260509130659 | 14 | 358 | 6.4 | 6.4 | 0.00 | 0.00 | 0.00 | 57 | |
| 20260509130155 | 14 | 19 | 6.4 | 6.4 | 0.00 | 0.00 | 0.00 | 57 | |
| 20260509125652 | 14 | 61 | 3.2 | 4.8 | 0.00 | 0.00 | 0.00 | 57 | |
| 20260509125149 | 15 | 56 | 4.8 | 6.4 | 0.00 | 0.00 | 0.00 | 54 | |
| 20260509124645 | 15 | 22 | 6.4 | 11.3 | 0.00 | 0.00 | 0.00 | 53 | |
| 20260509124142 | 15 | 27 | 4.8 | 9.7 | 0.00 | 0.00 | 0.00 | 53 | |
| 20260509123640 | 15 | 55 | 1.6 | 4.8 | 0.00 | 0.00 | 0.00 | 54 | |
| 20260509123137 | 15 | 61 | 3.2 | 3.2 | 0.00 | 0.00 | 0.00 | 55 | |
| 20260509122632 | 15 | 62 | 3.2 | 6.4 | 0.00 | 0.00 | 0.00 | 56 | |
| 20260509122130 | 15 | 74 | 3.2 | 4.8 | 0.00 | 0.00 | 0.00 | 56 | |
| 20260509121626 | 15 | 36 | 4.8 | 11.3 | 0.00 | 0.00 | 0.00 | 55 | |
| 20260509121124 | 15 | 28 | 6.4 | 9.7 | 0.00 | 0.00 | 0.00 | 52 | |
| 20260509120622 | 15 | 21 | 3.2 | 9.7 | 0.00 | 0.00 | 0.00 | 51 | |
| 20260509120120 | 16 | 64 | 1.6 | 4.8 | 0.00 | 0.00 | 0.00 | 50 | |
| 20260509115617 | 16 | 9 | 4.8 | 9.7 | 0.00 | 0.00 | 0.00 | 49 | |
| 20260509115114 | 16 | 41 | 3.2 | 12.9 | 0.00 | 0.00 | 0.00 | 48 | |
| 20260509114612 | 16 | 60 | 9.7 | 12.9 | 0.00 | 0.00 | 0.00 | 48 | |
| 20260509114111 | 16 | 355 | 6.4 | 9.7 | 0.00 | 0.00 | 0.00 | 48 | |
| 20260509113609 | 16 | 4 | 9.7 | 12.9 | 0.00 | 0.00 | 0.00 | 47 | |
| 20260509113106 | 16 | 5 | 3.2 | 4.8 | 0.00 | 0.00 | 0.00 | 48 | |
| 20260509112603 | 16 | 69 | 3.2 | 6.4 | 0.00 | 0.00 | 0.00 | 48 | |
| 20260509112100 | 16 | 43 | 4.8 | 9.7 | 0.00 | 0.00 | 0.00 | 48 | |
| 20260509111557 | 16 | 65 | 4.8 | 6.4 | 0.00 | 0.00 | 0.00 | 47 | |
| 20260509111054 | 16 | 69 | 3.2 | 9.7 | 0.00 | 0.00 | 0.00 | 47 | |
| 20260509110551 | 16 | 57 | 4.8 | 16.1 | 0.00 | 0.00 | 0.00 | 47 | |
| 20260509110048 | 16 | 73 | 1.6 | 6.4 | 0.00 | 0.00 | 0.00 | 49 | |
| 20260509105546 | 17 | 32 | 6.4 | 9.7 | 0.00 | 0.00 | 0.00 | 49 | |
| 20260509105043 | 17 | 15 | 4.8 | 6.4 | 0.00 | 0.00 | 0.00 | 48 | |
| 20260509104540 | 17 | 58 | 3.2 | 9.7 | 0.00 | 0.00 | 0.00 | 45 | |
| 20260509104037 | 17 | 48 | 3.2 | 12.9 | 0.00 | 0.00 | 0.00 | 45 | |
| 20260509103535 | 17 | 27 | 6.4 | 9.7 | 0.00 | 0.00 | 0.00 | 46 | |
| 20260509103033 | 17 | 59 | 8.0 | 11.3 | 0.00 | 0.00 | 0.00 | 45 | |
| 20260509102530 | 17 | 89 | 3.2 | 6.4 | 0.00 | 0.00 | 0.00 | 44 | |
| 20260509102026 | 17 | 347 | 9.7 | 12.9 | 0.00 | 0.00 | 0.00 | 45 | |
| 20260509101523 | 17 | 67 | 8.0 | 12.9 | 0.00 | 0.00 | 0.00 | 44 | |
| 20260509101020 | 17 | 8 | 9.7 | 11.3 | 0.00 | 0.00 | 0.00 | 45 | |
| 20260509100517 | 18 | 34 | 8.0 | 14.5 | 0.00 | 0.00 | 0.00 | 44 | |
| 20260509100014 | 18 | 9 | 9.7 | 14.5 | 0.00 | 0.00 | 0.00 | 43 | |
| 20260509095511 | 18 | 79 | 8.0 | 11.3 | 0.00 | 0.00 | 0.00 | 43 | |
| 20260509095008 | 18 | 42 | 4.8 | 14.5 | 0.00 | 0.00 | 0.00 | 42 | |
| 20260509094504 | 18 | 77 | 3.2 | 14.5 | 0.00 | 0.00 | 0.00 | 42 | |
| 20260509094002 | 18 | 56 | 9.7 | 14.5 | 0.00 | 0.00 | 0.00 | 42 | |
| 20260509093500 | 18 | 56 | 3.2 | 9.7 | 0.00 | 0.00 | 0.00 | 42 | |
| 20260509092957 | 18 | 82 | 8.0 | 12.9 | 0.00 | 0.00 | 0.00 | 41 | |
| 20260509092455 | 18 | 94 | 1.6 | 11.3 | 0.00 | 0.00 | 0.00 | 41 | |
| 20260509091953 | 19 | 40 | 4.8 | 9.7 | 0.00 | 0.00 | 0.00 | 40 | |
| 20260509091450 | 19 | 85 | 4.8 | 6.4 | 0.00 | 0.00 | 0.00 | 40 | |
| 20260509090947 | 19 | 54 | 4.8 | 11.3 | 0.00 | 0.00 | 0.00 | 38 | |
| 20260509090444 | 19 | 60 | 6.4 | 12.9 | 0.00 | 0.00 | 0.00 | 38 | |
| 20260509085942 | 19 | 55 | 4.8 | 16.1 | 0.00 | 0.00 | 0.00 | 37 | |
| 20260509085438 | 19 | 93 | 8.0 | 11.3 | 0.00 | 0.00 | 0.00 | 38 | |
| 20260509084935 | 19 | 39 | 6.4 | 11.3 | 0.00 | 0.00 | 0.00 | 38 | |
| 20260509084431 | 19 | 36 | 8.0 | 12.9 | 0.00 | 0.00 | 0.00 | 36 | |
| 20260509083929 | 20 | 79 | 3.2 | 17.7 | 0.00 | 0.00 | 0.00 | 37 | |
| 20260509083426 | 20 | 34 | 9.7 | 25.7 | 0.00 | 0.00 | 0.00 | 36 | |
| 20260509082923 | 20 | 36 | 9.7 | 16.1 | 0.00 | 0.00 | 0.00 | 36 | |
| 20260509082420 | 20 | 43 | 14.5 | 24.1 | 0.00 | 0.00 | 0.00 | 36 | |
| 20260509081917 | 20 | 90 | 12.9 | 20.9 | 0.00 | 0.00 | 0.00 | 36 | |
| 20260509081414 | 20 | 74 | 11.3 | 22.5 | 0.00 | 0.00 | 0.00 | 34 | |
| 20260509080911 | 20 | 52 | 14.5 | 27.4 | 0.00 | 0.00 | 0.00 | 33 | |
| 20260509080409 | 20 | 17 | 14.5 | 20.9 | 0.00 | 0.00 | 0.00 | 34 | |
| 20260509075908 | 20 | 41 | 14.5 | 20.9 | 0.00 | 0.00 | 0.00 | 35 | |
| 20260509075404 | 20 | 24 | 11.3 | 16.1 | 0.00 | 0.00 | 0.00 | 35 | |
| 20260509074902 | 20 | 48 | 9.7 | 17.7 | 0.00 | 0.00 | 0.00 | 34 | |
| 20260509074359 | 20 | 59 | 14.5 | 22.5 | 0.00 | 0.00 | 0.00 | 33 | |
| 20260509073855 | 21 | 68 | 9.7 | 20.9 | 0.00 | 0.00 | 0.00 | 33 | |
| 20260509073352 | 21 | 93 | 9.7 | 22.5 | 0.00 | 0.00 | 0.00 | 34 | |
| 20260509072848 | 21 | 183 | 8.0 | 17.7 | 0.00 | 0.00 | 0.00 | 33 | |
| 20260509072345 | 21 | 29 | 14.5 | 17.7 | 0.00 | 0.00 | 0.00 | 32 | |
| 20260509071841 | 21 | 1 | 14.5 | 20.9 | 0.00 | 0.00 | 0.00 | 32 | |
| 20260509071338 | 21 | 46 | 16.1 | 25.7 | 0.00 | 0.00 | 0.00 | 32 | |
| 20260509070836 | 21 | 18 | 14.5 | 35.4 | 0.00 | 0.00 | 0.00 | 30 | |
| 20260509070332 | 21 | 68 | 12.9 | 25.7 | 0.00 | 0.00 | 0.00 | 30 | |
| 20260509065829 | 21 | 85 | 11.3 | 24.1 | 0.00 | 0.00 | 0.00 | 30 | |
| 20260509065325 | 21 | 61 | 17.7 | 29.0 | 0.00 | 0.00 | 0.00 | 31 | |
| 20260509064821 | 21 | 70 | 9.7 | 29.0 | 0.00 | 0.00 | 0.00 | 29 | |
| 20260509064319 | 21 | 81 | 14.5 | 24.1 | 0.00 | 0.00 | 0.00 | 29 | |
| 20260509063816 | 21 | 91 | 12.9 | 25.7 | 0.00 | 0.00 | 0.00 | 29 | |
| 20260509063312 | 21 | 27 | 16.1 | 22.5 | 0.00 | 0.00 | 0.00 | 29 | |
| 20260509062810 | 21 | 94 | 11.3 | 22.5 | 0.00 | 0.00 | 0.00 | 29 | |
| 20260509062307 | 21 | 30 | 22.5 | 37.0 | 0.00 | 0.00 | 0.00 | 28 | |
| 20260509061804 | 21 | 79 | 12.9 | 20.9 | 0.00 | 0.00 | 0.00 | 31 | |
| 20260509061302 | 21 | 133 | 14.5 | 29.0 | 0.00 | 0.00 | 0.00 | 30 | |
| 20260509060758 | 21 | 57 | 16.1 | 37.0 | 0.00 | 0.00 | 0.00 | 30 | |
| 20260509060255 | 21 | 78 | 20.9 | 27.4 | 0.00 | 0.00 | 0.00 | 29 | |
| 20260509055751 | 21 | 133 | 19.3 | 25.7 | 0.00 | 0.00 | 0.00 | 30 | |
| 20260509055247 | 21 | 50 | 12.9 | 25.7 | 0.00 | 0.00 | 0.00 | 31 | |
| 20260509054743 | 21 | 50 | 9.7 | 17.7 | 0.00 | 0.00 | 0.00 | 32 | |
| 20260509054240 | 21 | 70 | 22.5 | 33.8 | 0.00 | 0.00 | 0.00 | 30 | |
| 20260509053739 | 21 | 70 | 11.3 | 25.7 | 0.00 | 0.00 | 0.00 | 31 | |
| 20260509053235 | 21 | 81 | 14.5 | 29.0 | 0.00 | 0.00 | 0.00 | 33 | |
| 20260509052733 | 21 | 25 | 22.5 | 27.4 | 0.00 | 0.00 | 0.00 | 33 | |
| 20260509052231 | 21 | 69 | 16.1 | 27.4 | 0.00 | 0.00 | 0.00 | 33 | |
| 20260509051728 | 21 | 354 | 19.3 | 24.1 | 0.00 | 0.00 | 0.00 | 32 | |
| 20260509051226 | 21 | 63 | 9.7 | 24.1 | 0.00 | 0.00 | 0.00 | 33 | |
| 20260509050722 | 21 | 18 | 12.9 | 27.4 | 0.00 | 0.00 | 0.00 | 35 | |
| 20260509050219 | 21 | 45 | 14.5 | 20.9 | 0.00 | 0.00 | 0.00 | 35 | |
| 20260509045716 | 20 | 5 | 14.5 | 27.4 | 0.00 | 0.00 | 0.00 | 35 | |
| 20260509045213 | 20 | 54 | 20.9 | 35.4 | 0.00 | 0.00 | 0.00 | 36 | |
| 20260509044710 | 20 | 105 | 8.0 | 30.6 | 0.00 | 0.00 | 0.00 | 36 | |
| 20260509044208 | 20 | 40 | 19.3 | 35.4 | 0.00 | 0.00 | 0.00 | 36 | |
| 20260509043704 | 21 | 40 | 14.5 | 33.8 | 0.00 | 0.00 | 0.00 | 35 | |
| 20260509043200 | 20 | 3 | 9.7 | 27.4 | 0.00 | 0.00 | 0.00 | 36 | |
| 20260509042656 | 20 | 37 | 14.5 | 22.5 | 0.00 | 0.00 | 0.00 | 35 | |
| 20260509042153 | 20 | 61 | 14.5 | 35.4 | 0.00 | 0.00 | 0.00 | 35 | |
| 20260509041649 | 20 | 20 | 19.3 | 43.5 | 0.00 | 0.00 | 0.00 | 37 | |
| 20260509041147 | 20 | 79 | 17.7 | 35.4 | 0.00 | 0.00 | 0.00 | 36 | |
| 20260509040645 | 21 | 90 | 19.3 | 25.7 | 0.00 | 0.00 | 0.00 | 35 | |
| 20260509040142 | 20 | 11 | 12.9 | 22.5 | 0.00 | 0.00 | 0.00 | 38 | |
| 20260509035639 | 20 | 19 | 17.7 | 41.8 | 0.00 | 0.00 | 0.00 | 37 | |
| 20260509035135 | 20 | 52 | 16.1 | 30.6 | 0.00 | 0.00 | 0.00 | 37 | |
| 20260509034633 | 20 | 358 | 14.5 | 24.1 | 0.00 | 0.00 | 0.00 | 38 | |
| 20260509034130 | 20 | 128 | 19.3 | 27.4 | 0.00 | 0.00 | 0.00 | 38 | |
| 20260509033627 | 20 | 67 | 19.3 | 30.6 | 0.00 | 0.00 | 0.00 | 39 | |
| 20260509033124 | 20 | 79 | 11.3 | 33.8 | 0.00 | 0.00 | 0.00 | 39 | |
| 20260509032621 | 20 | 25 | 17.7 | 37.0 | 0.00 | 0.00 | 0.00 | 39 | |
| 20260509032118 | 20 | 34 | 11.3 | 27.4 | 0.00 | 0.00 | 0.00 | 41 | |
| 20260509031616 | 19 | 60 | 14.5 | 33.8 | 0.00 | 0.00 | 0.00 | 39 | |
| 20260509031113 | 20 | 29 | 17.7 | 37.0 | 0.00 | 0.00 | 0.00 | 40 | |
| 20260509030611 | 20 | 125 | 14.5 | 30.6 | 0.00 | 0.00 | 0.00 | 41 | |
| 20260509030108 | 20 | 324 | 11.3 | 22.5 | 0.00 | 0.00 | 0.00 | 42 | |
| 20260509025604 | 20 | 236 | 9.7 | 30.6 | 0.00 | 0.00 | 0.00 | 40 | |
| 20260509025059 | 20 | 126 | 9.7 | 30.6 | 0.00 | 0.00 | 0.00 | 42 | |
| 20260509024555 | 20 | 20 | 16.1 | 33.8 | 0.00 | 0.00 | 0.00 | 41 | |
| 20260509024052 | 19 | 29 | 17.7 | 40.2 | 0.00 | 0.00 | 0.00 | 41 | |
| 20260509023550 | 19 | 313 | 17.7 | 30.6 | 0.00 | 0.00 | 0.00 | 40 | |
| 20260509023046 | 19 | 45 | 16.1 | 29.0 | 0.00 | 0.00 | 0.00 | 41 | |
| 20260509022542 | 19 | 44 | 17.7 | 27.4 | 0.00 | 0.00 | 0.00 | 41 | |
| 20260509022041 | 19 | 66 | 14.5 | 27.4 | 0.00 | 0.00 | 0.00 | 41 | |
| 20260509021537 | 19 | 103 | 19.3 | 33.8 | 0.00 | 0.00 | 0.00 | 42 | |
| 20260509021034 | 19 | 52 | 16.1 | 24.1 | 0.00 | 0.00 | 0.00 | 42 | |
| 20260509020533 | 18 | 91 | 6.4 | 22.5 | 0.00 | 0.00 | 0.00 | 43 | |
| 20260509020029 | 19 | 64 | 17.7 | 22.5 | 0.00 | 0.00 | 0.00 | 46 | |
| 20260509015528 | 18 | 17 | 9.7 | 27.4 | 0.00 | 0.00 | 0.00 | 45 | |
| 20260509015025 | 18 | 344 | 14.5 | 24.1 | 0.00 | 0.00 | 0.00 | 44 | |
| 20260509014522 | 18 | 108 | 11.3 | 25.7 | 0.00 | 0.00 | 0.00 | 45 | |
| 20260509014018 | 18 | 22 | 22.5 | 29.0 | 0.00 | 0.00 | 0.00 | 46 | |
| 20260509013515 | 18 | 34 | 17.7 | 24.1 | 0.00 | 0.00 | 0.00 | 46 | |
| 20260509013011 | 18 | 5 | 22.5 | 30.6 | 0.00 | 0.00 | 0.00 | 47 | |
| 20260509012508 | 18 | 42 | 8.0 | 27.4 | 0.00 | 0.00 | 0.00 | 47 | |
| 20260509012004 | 17 | 33 | 14.5 | 25.7 | 0.00 | 0.00 | 0.00 | 48 | |
| 20260509011502 | 18 | 26 | 22.5 | 25.7 | 0.00 | 0.00 | 0.00 | 47 | |
| 20260509010959 | 18 | 47 | 25.7 | 40.2 | 0.00 | 0.00 | 0.00 | 46 | |
| 20260509010457 | 17 | 40 | 11.3 | 22.5 | 0.00 | 0.00 | 0.00 | 50 | |
| 20260509005953 | 17 | 27 | 16.1 | 22.5 | 0.00 | 0.00 | 0.00 | 49 | |
| 20260509005452 | 17 | 53 | 14.5 | 22.5 | 0.00 | 0.00 | 0.00 | 49 | |
| 20260509004951 | 17 | 66 | 6.4 | 12.9 | 0.00 | 0.00 | 0.00 | 50 | |
| 20260509004449 | 17 | 27 | 22.5 | 24.1 | 0.00 | 0.00 | 0.00 | 50 | |
| 20260509003946 | 17 | 94 | 4.8 | 16.1 | 0.00 | 0.00 | 0.00 | 51 | |
| 20260509003444 | 16 | 3 | 12.9 | 20.9 | 0.00 | 0.00 | 0.00 | 51 | |
| 20260509002940 | 16 | 40 | 12.9 | 20.9 | 0.00 | 0.00 | 0.00 | 52 | |
| 20260509002439 | 16 | 0 | 8.0 | 20.9 | 0.00 | 0.00 | 0.00 | 53 | |
| 20260509001935 | 17 | 58 | 11.3 | 22.5 | 0.00 | 0.00 | 0.00 | 51 | |
| 20260509001432 | 17 | 30 | 6.4 | 14.5 | 0.00 | 0.00 | 0.00 | 51 | |
| 20260509000929 | 17 | 36 | 14.5 | 17.7 | 0.00 | 0.00 | 0.00 | 50 | |
| 20260509000427 | 16 | 106 | 8.0 | 25.7 | 0.00 | 0.00 | 0.00 | 50 | |
| 20260508235922 | 16 | 73 | 14.5 | 27.4 | 0.00 | 0.00 | 0.00 | 50 | |
| 20260508235420 | 16 | 28 | 20.9 | 29.0 | 0.00 | 0.00 | 0.00 | 51 | |
| 20260508234917 | 16 | 37 | 16.1 | 33.8 | 0.00 | 0.00 | 0.00 | 51 | |
| 20260508234414 | 16 | 78 | 11.3 | 27.4 | 0.00 | 0.00 | 0.00 | 52 | |
| 20260508233911 | 16 | 98 | 11.3 | 22.5 | 0.00 | 0.00 | 0.00 | 51 | |
| 20260508233411 | 16 | 24 | 17.7 | 24.1 | 0.00 | 0.00 | 0.00 | 51 | |
| 20260508232907 | 16 | 16 | 17.7 | 27.4 | 0.00 | 0.00 | 0.00 | 52 | |
| 20260508232404 | 16 | 41 | 12.9 | 24.1 | 0.00 | 0.00 | 0.00 | 53 | |
| 20260508231902 | 16 | 48 | 6.4 | 17.7 | 0.00 | 0.00 | 0.00 | 54 | |
| 20260508231359 | 16 | 108 | 16.1 | 40.2 | 0.00 | 0.00 | 0.00 | 53 | |
| 20260508230855 | 16 | 38 | 14.5 | 30.6 | 0.00 | 0.00 | 0.00 | 53 | |
| 20260508230351 | 15 | 340 | 12.9 | 22.5 | 0.00 | 0.00 | 0.00 | 55 | |
| 20260508225849 | 15 | 1 | 11.3 | 16.1 | 0.00 | 0.00 | 0.00 | 54 | |
| 20260508225345 | 15 | 58 | 11.3 | 20.9 | 0.00 | 0.00 | 0.00 | 55 | |
| 20260508224843 | 15 | 16 | 9.7 | 29.0 | 0.00 | 0.00 | 0.00 | 55 | |
| 20260508224340 | 15 | 28 | 6.4 | 24.1 | 0.00 | 0.00 | 0.00 | 56 | |
| 20260508223838 | 15 | 28 | 8.0 | 17.7 | 0.00 | 0.00 | 0.00 | 56 | |
| 20260508223335 | 15 | 34 | 9.7 | 22.5 | 0.00 | 0.00 | 0.00 | 56 | |
| 20260508222833 | 15 | 90 | 17.7 | 24.1 | 0.00 | 0.00 | 0.00 | 56 | |
| 20260508222330 | 15 | 66 | 11.3 | 25.7 | 0.00 | 0.00 | 0.00 | 58 | |
| 20260508221826 | 15 | 9 | 9.7 | 20.9 | 0.00 | 0.00 | 0.00 | 57 | |
| 20260508221322 | 15 | 24 | 25.7 | 30.6 | 0.00 | 0.00 | 0.00 | 57 | |
| 20260508220819 | 15 | 6 | 20.9 | 29.0 | 0.00 | 0.00 | 0.00 | 57 | |
| 20260508220315 | 15 | 21 | 6.4 | 14.5 | 0.00 | 0.00 | 0.00 | 57 | |
| 20260508215812 | 15 | 315 | 19.3 | 30.6 | 0.00 | 0.00 | 0.00 | 56 | |
| 20260508215308 | 15 | 77 | 17.7 | 25.7 | 0.00 | 0.00 | 0.00 | 56 | |
| 20260508214805 | 15 | 47 | 14.5 | 25.7 | 0.00 | 0.00 | 0.00 | 56 | |
| 20260508214302 | 15 | 32 | 20.9 | 29.0 | 0.00 | 0.00 | 0.00 | 56 | |
| 20260508213759 | 15 | 14 | 14.5 | 27.4 | 0.00 | 0.00 | 0.00 | 56 | |
| 20260508213256 | 14 | 10 | 19.3 | 27.4 | 0.00 | 0.00 | 0.00 | 56 | |
| 20260508212752 | 14 | 39 | 11.3 | 22.5 | 0.00 | 0.00 | 0.00 | 57 | |
| 20260508212248 | 14 | 33 | 16.1 | 22.5 | 0.00 | 0.00 | 0.00 | 58 | |
| 20260508211744 | 14 | 42 | 20.9 | 27.4 | 0.00 | 0.00 | 0.00 | 57 | |
| 20260508211240 | 13 | 48 | 11.3 | 17.7 | 0.00 | 0.00 | 0.00 | 58 | |
| 20260508210738 | 13 | 32 | 6.4 | 17.7 | 0.00 | 0.00 | 0.00 | 59 | |
| 20260508210235 | 13 | 91 | 4.8 | 17.7 | 0.00 | 0.00 | 0.00 | 59 | |
| 20260508205731 | 13 | 59 | 14.5 | 29.0 | 0.00 | 0.00 | 0.00 | 58 | |
| 20260508205228 | 13 | 25 | 9.7 | 24.1 | 0.00 | 0.00 | 0.00 | 57 | |
| 20260508204724 | 14 | 39 | 6.4 | 22.5 | 0.00 | 0.00 | 0.00 | 58 | |
| 20260508204221 | 14 | 109 | 14.5 | 22.5 | 0.00 | 0.00 | 0.00 | 57 | |
| 20260508203717 | 14 | 40 | 9.7 | 27.4 | 0.00 | 0.00 | 0.00 | 57 | |
| 20260508203213 | 14 | 21 | 12.9 | 24.1 | 0.00 | 0.00 | 0.00 | 58 | |
| 20260508202709 | 14 | 6 | 11.3 | 22.5 | 0.00 | 0.00 | 0.00 | 57 | |
| 20260508202207 | 14 | 52 | 9.7 | 24.1 | 0.00 | 0.00 | 0.00 | 57 | |
| 20260508201703 | 14 | 23 | 12.9 | 24.1 | 0.00 | 0.00 | 0.00 | 57 | |
| 20260508201200 | 14 | 11 | 16.1 | 22.5 | 0.00 | 0.00 | 0.00 | 56 | |
| 20260508200657 | 14 | 344 | 11.3 | 22.5 | 0.00 | 0.00 | 0.00 | 55 | |
| 20260508200153 | 14 | 17 | 16.1 | 22.5 | 0.00 | 0.00 | 0.00 | 54 | |
| 20260508195650 | 14 | 12 | 19.3 | 29.0 | 0.00 | 0.00 | 0.00 | 54 | |
| 20260508195146 | 14 | 29 | 6.4 | 20.9 | 0.00 | 0.00 | 0.00 | 54 | |
| 20260508194643 | 14 | 6 | 24.1 | 35.4 | 0.00 | 0.00 | 0.00 | 53 | |
| 20260508194140 | 14 | 47 | 8.0 | 24.1 | 0.00 | 0.00 | 0.00 | 53 | |
| 20260508193636 | 14 | 102 | 9.7 | 24.1 | 0.00 | 0.00 | 0.00 | 53 | |
| 20260508193133 | 14 | 5 | 11.3 | 33.8 | 0.00 | 0.00 | 0.00 | 53 | |
| 20260508192630 | 14 | 52 | 11.3 | 35.4 | 0.00 | 0.00 | 0.00 | 53 | |
| 20260508192128 | 14 | 0 | 16.1 | 24.1 | 0.00 | 0.00 | 0.00 | 53 | |
| 20260508191624 | 14 | 343 | 16.1 | 27.4 | 0.00 | 0.00 | 0.00 | 54 | |
| 20260508191121 | 15 | 38 | 19.3 | 33.8 | 0.00 | 0.00 | 0.00 | 53 | |
| 20260508190619 | 15 | 8 | 24.1 | 37.0 | 0.00 | 0.00 | 0.00 | 52 | |
| 20260508190114 | 15 | 41 | 19.3 | 27.4 | 0.00 | 0.00 | 0.00 | 51 | |
| 20260508185611 | 15 | 31 | 12.9 | 24.1 | 0.00 | 0.00 | 0.00 | 50 | |
| 20260508185109 | 15 | 39 | 12.9 | 24.1 | 0.00 | 0.00 | 0.00 | 49 | |
| 20260508184606 | 15 | 37 | 16.1 | 24.1 | 0.00 | 0.00 | 0.00 | 49 | |
| 20260508184103 | 15 | 0 | 17.7 | 29.0 | 0.00 | 0.00 | 0.00 | 49 | |
| 20260508183559 | 15 | 39 | 6.4 | 20.9 | 0.00 | 0.00 | 0.00 | 49 | |
| 20260508183055 | 15 | 64 | 11.3 | 14.5 | 0.00 | 0.00 | 0.00 | 51 | |
| 20260508182552 | 15 | 8 | 12.9 | 16.1 | 0.00 | 0.00 | 0.00 | 51 | |
| 20260508182049 | 15 | 0 | 8.0 | 14.5 | 0.00 | 0.00 | 0.00 | 51 | |
| 20260508181543 | 15 | 23 | 9.7 | 24.1 | 0.00 | 0.00 | 0.00 | 51 | |
| 20260508181042 | 15 | 23 | 8.0 | 14.5 | 0.00 | 0.00 | 0.00 | 51 | |
| 20260508180538 | 15 | 11 | 9.7 | 16.1 | 0.00 | 0.00 | 0.00 | 52 | |
| 20260508180034 | 14 | 7 | 14.5 | 16.1 | 0.00 | 0.00 | 0.00 | 52 | |
| 20260508175531 | 14 | 351 | 9.7 | 16.1 | 0.00 | 0.00 | 0.00 | 54 | |
| 20260508175028 | 14 | 76 | 8.0 | 14.5 | 0.00 | 0.00 | 0.00 | 54 | |
| 20260508174526 | 14 | 3 | 8.0 | 16.1 | 0.00 | 0.00 | 0.00 | 54 | |
| 20260508174023 | 14 | 18 | 4.8 | 17.7 | 0.00 | 0.00 | 0.00 | 54 | |
| 20260508173520 | 14 | 66 | 8.0 | 9.7 | 0.00 | 0.00 | 0.00 | 54 | |
| 20260508173015 | 14 | 43 | 9.7 | 11.3 | 0.00 | 0.00 | 0.00 | 55 | |
| 20260508172513 | 14 | 73 | 1.6 | 9.7 | 0.00 | 0.00 | 0.00 | 55 | |
| 20260508172009 | 14 | 86 | 6.4 | 11.3 | 0.00 | 0.00 | 0.00 | 55 | |
| 20260508171506 | 14 | 17 | 6.4 | 11.3 | 0.00 | 0.00 | 0.00 | 55 | |
| 20260508171002 | 14 | 7 | 9.7 | 14.5 | 0.00 | 0.00 | 0.00 | 55 | |
| 20260508170500 | 14 | 35 | 4.8 | 9.7 | 0.00 | 0.00 | 0.00 | 55 | |
| 20260508165956 | 14 | 83 | 1.6 | 6.4 | 0.00 | 0.00 | 0.00 | 55 | |
| 20260508165455 | 14 | 66 | 6.4 | 9.7 | 0.00 | 0.00 | 0.00 | 55 | |
| 20260508164950 | 14 | 71 | 6.4 | 9.7 | 0.00 | 0.00 | 0.00 | 55 | |
| 20260508164447 | 14 | 76 | 4.8 | 6.4 | 0.00 | 0.00 | 0.00 | 56 | |
| 20260508163944 | 14 | 9 | 6.4 | 12.9 | 0.00 | 0.00 | 0.00 | 56 | |
| 20260508163442 | 14 | 77 | 4.8 | 11.3 | 0.00 | 0.00 | 0.00 | 55 | |
| 20260508162937 | 14 | 18 | 6.4 | 11.3 | 0.00 | 0.00 | 0.00 | 56 | |
| 20260508162435 | 14 | 5 | 8.0 | 12.9 | 0.00 | 0.00 | 0.00 | 56 | |
| 20260508161932 | 14 | 342 | 6.4 | 12.9 | 0.00 | 0.00 | 0.00 | 56 | |
| 20260508161429 | 14 | 353 | 9.7 | 12.9 | 0.00 | 0.00 | 0.00 | 56 | |
| 20260508160926 | 14 | 6 | 9.7 | 14.5 | 0.00 | 0.00 | 0.00 | 57 | |
| 20260508160425 | 14 | 5 | 9.7 | 14.5 | 0.00 | 0.00 | 0.00 | 58 | |
| 20260508155921 | 14 | 95 | 8.0 | 12.9 | 0.00 | 0.00 | 0.00 | 58 | |
| 20260508155418 | 13 | 357 | 6.4 | 11.3 | 0.00 | 0.00 | 0.00 | 61 | |
| 20260508154915 | 13 | 105 | 3.2 | 6.4 | 0.00 | 0.00 | 0.00 | 63 | |
| 20260508154413 | 13 | 94 | 4.8 | 6.4 | 0.00 | 0.00 | 0.00 | 64 | |
| 20260508153909 | 13 | 66 | 4.8 | 6.4 | 0.00 | 0.00 | 0.00 | 66 | |
| 20260508153406 | 13 | 77 | 1.6 | 3.2 | 0.00 | 0.00 | 0.00 | 69 | |
| 20260508152902 | 13 | 96 | 0.0 | 1.6 | 0.00 | 0.00 | 0.00 | 70 | |
| 20260508152359 | 13 | 57 | 3.2 | 3.2 | 0.00 | 0.00 | 0.00 | 69 | |
| 20260508151855 | 13 | 107 | 0.0 | 0.0 | 0.00 | 0.00 | 0.00 | 68 | |
| 20260508151352 | 14 | 106 | 0.0 | 1.6 | 0.00 | 0.00 | 0.00 | 67 | |
| 20260508150848 | 14 | 105 | 1.6 | 1.6 | 0.00 | 0.00 | 0.00 | 67 | |
| 20260508150345 | 14 | 96 | 1.6 | 3.2 | 0.00 | 0.00 | 0.00 | 66 | |
| 20260508145841 | 14 | 106 | 0.0 | 3.2 | 0.00 | 0.00 | 0.00 | 65 | |
| 20260508145338 | 14 | 85 | 3.2 | 4.8 | 0.00 | 0.00 | 0.00 | 65 | |
| 20260508144834 | 15 | 102 | 1.6 | 1.6 | 0.00 | 0.00 | 0.00 | 64 | |
| 20260508144332 | 15 | 68 | 1.6 | 1.6 | 0.00 | 0.00 | 0.00 | 63 | |
| 20260508143830 | 15 | 109 | 0.0 | 3.2 | 0.00 | 0.00 | 0.00 | 62 | |
| 20260508143327 | 15 | 91 | 1.6 | 4.8 | 0.00 | 0.00 | 0.00 | 62 | |
| 20260508142824 | 15 | 94 | 1.6 | 3.2 | 0.00 | 0.00 | 0.00 | 61 | |
| 20260508142320 | 15 | 31 | 4.8 | 9.7 | 0.00 | 0.00 | 0.00 | 60 | |
| 20260508141817 | 15 | 26 | 3.2 | 9.7 | 0.00 | 0.00 | 0.00 | 60 | |
| 20260508141314 | 15 | 91 | 3.2 | 12.9 | 0.00 | 0.00 | 0.00 | 60 | |
| 20260508140811 | 16 | 102 | 6.4 | 9.7 | 0.00 | 0.00 | 0.00 | 60 | |
| 20260508140308 | 16 | 19 | 11.3 | 12.9 | 0.00 | 0.00 | 0.00 | 60 | |
| 20260508135804 | 16 | 74 | 6.4 | 9.7 | 0.00 | 0.00 | 0.00 | 60 |